Location: Brachbach
(49.1847°N, 9.7240°E)
Time: 09:52:13
(UTC+00:00)

Cosmos 2333 Rocket - Pass Details

Date: 23 May 2024
Orbit: 838 x 863 km, 70.8° (Epoch: 15 June)

Event Time Altitude Azimuth Distance (km) Brightness Sun altitude
Rises 02:30:29 0° 326° (NW) 3,426 5.5 -8.1°
Reaches altitude 10° 02:33:03 10° 320° (NW) 2,490 4.7 -7.8°
Maximum altitude 02:38:21 41° 252° (WSW) 1,227 2.7 -7.2°
Drops below altitude 10° 02:43:40 10° 184° (S) 2,488 4.2 -6.6°
Sets 02:46:14 0° 177° (S) 3,423 5.0 -6.2°
